www.pogodaiklimat.ru
ПОГОДА в Биг Рапидсе
Время
и дата
17:35 14.01
17:55 14.01
18:15 14.01
18:35 14.01
18:55 14.01
19:15 14.01
19:35 14.01
19:55 14.01
20:15 14.01
20:35 14.01
20:55 14.01
21:15 14.01
21:35 14.01
21:55 14.01
22:15 14.01
22:35 14.01
22:55 14.01
23:15 14.01
23:35 14.01
23:55 14.01
00:15 15.01
00:35 15.01
00:55 15.01
01:15 15.01
01:35 15.01
01:55 15.01
02:15 15.01
02:35 15.01
02:55 15.01
03:15 15.01
03:35 15.01
03:55 15.01
04:15 15.01
04:35 15.01
04:55 15.01
05:15 15.01
05:35 15.01
05:55 15.01
06:15 15.01
06:35 15.01
06:55 15.01
07:15 15.01
07:35 15.01
07:55 15.01
08:15 15.01
08:35 15.01
08:55 15.01
09:15 15.01
Ветер
(напр.,м/с)
Видим. Явления Облачность Т
(С)
Тd
(С)
f
(%)
Тe
(С)
Тes
(С)
Комфортность P
(гПа)
Po
(гПа)
Тmin
(С)
Tmax
(С)
R
(мм)
R24
(мм)
S
(см)
В 1 8 км дымка ясно +1.6 -0.2 88 -2 -2 966.2
ЮВ 1 11 км ясно +1.5 -0.1 89 -3 -3 966.5
В 1 8 км дымка ясно +1.2 -0.2 90 -3 -3 966.5
В 1 8 км дымка ясно +1.1 -0.2 91 -3 -3 966.2
В 2 8 км дымка ясно +1.1 -0.1 92 -4 -4 965.9 +1.0 +2.5
В 2 8 км дымка ясно +1.0 -0.1 92 -4 -4 965.9
В 1 8 км дымка 5/5 300 м
[Ac]
+1.0 0.0 93 -4 -4 965.9
ЮВ 2 8 км дымка 10/5 300 м
[Ac]
+1.1 0.0 92 -5 -5 966.2
ЮВ 2 8 км дымка 10/5 300 м
[Ac]
+1.1 0.0 92 -4 -4 966.5
ЮВ 2 8 км дымка 10/0 2100 м
[Ac]
+1.1 0.0 92 -5 -5 966.2
В 2 8 км дымка 10/0 2250 м
[Ac]
+1.2 0.0 92 -4 -4 965.9
ЮВ 2 11 км 8/0 2700 м
[Ac]
+1.2 0.0 92 -4 -4 965.9
ЮВ 2 11 км 8/0 3600 м
[Ac]
+1.2 -0.1 91 -5 -5 965.6
ЮВ 3 11 км 8/0 3600 м
[Ac]
+1.4 -0.2 89 -5 -5 965.2
ЮВ 2
{3}
11 км 8/5 690 м
[Ac]
+1.2 -0.3 90 -4 -4 965.2
В 2 11 км 10/10 690 м +1.2 -0.3 90 -4 -4 965.2
ЮВ 3
{3}
11 км 10/10 690 м +1.1 -0.3 90 -5 -5 964.6
ЮВ 2 11 км 10/10 570 м +1.2 -0.3 90 -5 -5 964.6
ЮВ 2 11 км 10/10 510 м +1.5 -0.2 88 -4 -4 964.6
ЮВ 2 11 км 10/10 510 м +1.5 -0.2 88 -4 -4 964.6
ЮВ 2 11 км 10/10 570 м +1.5 -0.2 88 -4 -4 964.6
ЮВ 3
{4}
11 км 10/10 510 м +1.5 -0.2 88 -5 -5 964.6
ЮВ 2 11 км слабый снег 10/10 570 м +1.5 -0.2 88 -4 -4 964.3 +1.0 +1.6
В 2 8 км слабый снег 10/10 480 м +1.1 -0.2 91 -5 -5 964.3
В 2 5 км слабый снег 10/10 300 м +0.8 -0.2 93 -5 -5 963.9
В 2 8 км дымка 10/10 240 м +0.6 0.0 96 -6 -6 963.9
ЮВ 2 8 км дымка 10/10 240 м +0.6 0.0 96 -6 -6 963.9
В 2 6 км слабый снег 10/10 240 м +0.5 0.0 96 -6 -6 963.6
ЮВ 2 4 км слабый снег 10/10 240 м +0.5 0.0 96 -6 -6 963.9
ЮВ 2 6 км слабый снег 10/10 180 м +0.3 0.0 98 -5 -5 963.9
ЮВ 2 8 км дымка 10/10 180 м +0.5 0.0 96 -5 -5 963.6
ЮВ 2 8 км дымка 10/10 240 м +0.6 0.0 96 -5 -5 963.3
В 2 5 км слабый снег 10/10 360 м +0.5 0.0 96 -6 -6 963.3
В 2 8 км слабый снег 10/10 360 м +0.7 0.0 95 -5 -5 963.3
ЮВ 1 8 км дымка 10/10 360 м +0.7 0.0 95 -4 -4 963.6
В 2 8 км дымка 10/10 300 м +0.7 0.0 95 -5 -5 963.3
ЮВ 1 6 км дымка 10/10 300 м +0.6 0.0 96 -4 -4 963.3
ЮВ 1 3 км слабый снег 10/10 240 м +0.5 0.0 96 -4 -4 963.3
ЮВ 2 4 км слабый снег 10/10 150 м +0.4 0.0 97 -5 -5 963.3
В 1 3 км слабый снег 10/10 150 м +0.1 0.0 99 -4 -4 962.9
ЮВ 1 5 км слабый снег 10/10 150 м +0.1 0.0 99 -4 -4 962.9 +1.5 0.5 0.5
ЮВ 1 6 км слабый снег 10/10 150 м +0.2 0.0 99 -5 -5 962.9
В 1 5 км слабый снег 10/10 150 м 0.0 0.0 100 -4 -4 962.9
ЮВ 1 5 км слабый снег 10/10 150 м 0.0 0.0 100 -4 -4 963.3
В 1 5 км слабый снег 10/10 150 м 0.0 0.0 100 -4 -4 963.3
В 1 3 км слабый снег 10/10 150 м 0.0 0.0 100 -4 -4 963.3
В 1 3 км слабый снег 10/10 150 м 0.0 0.0 100 -4 -4 963.3
В 1 2 км слабый снег 10/10 150 м 0.0 0.0 100 -4 -4 963.3
Местоположение метеостанции Roben-Hood Airport: широта 43.7225 долгота -85.5042 высота над уровнем моря 302 м.
В архиве по умолчанию представлена погода в Биг Рапидсе за последние 1-2 суток. Обновление информации о фактической погоде в базе происходит ежечасно! Архивные данные за месяц целиком и за предыдущие месяцы Вы можете получить, выбрав интересующий диапазон дат из раскрывающегося списка и нажав кнопку "Ввод!".
Внимание! Архив погоды МЕТАР в базе сайта по станциям, не включенным в климатический монитор, хранится не более 60 дней. Нет смысла пытаться выбрать более раннюю дату.
*Определитесь, кто Вы:
Внимание! Время в таблицах - местное (без учета летнего времени). Для получения всемирного времени необходимо вычесть поправку, которая равна -5 ч.
Смотрите также архив погоды в соседних городах и на ближайших метеорологических станциях:
Партнеры нашего сайта:      
Пояснения к столбцам:
  • Ветер - указаны скорость ветра в м/с - средняя за 10 мин, порывы в срок и между сроками (в фигурных скобках) и направление, откуда дует ветер: С - северный,
  • СВ - северо-восточный, В - восточный, ЮВ - юго-восточный, Ю - южный, ЮЗ - юго-западный, З - западный, СЗ - северо-западный.
  • Видимость - горизонтальная дальность видимости в метрах или километрах. При видимости от 1 до 10 км при отсутствии осадков обычно наблюдается дымка, при ухудшении видимости до 1 км и менее - туман. В сухую погоду видимость может ухудшаться дымом, пылью или мглою.
  • Явления - указаны атмосферные явления, наблюдавшиеся в срок или в последний час перед сроком; фигурными скобками обозначены явления, наблюдавшиеся между сроками (за 1-3 часа до срока); квадратными скобками обозначены град или гололедные отложения с указанием их диаметра в мм.
  • Облачность - указаны через наклонную черту общая и нижняя облачность в баллах и высота нижней границы облаков в метрах; квадратными скобками обозначены формы облаков: Ci - перистые, Cs - перисто-слоистые, Cc - перисто-кучевые, Ac - высококучевые, As - высокослоистые, Sc - слоисто-кучевые, Ns - слоисто-дождевые, Cu - кучевые, Cb - кучево-дождевые. Подробнее классификацию облаков см. в Атласе облаков (PDF).
  • T - Температура воздуха - температура, измеренная на высоте 2 м над землей.
  • Td - Температура точки росы - температура, при понижении до которой содержащийся в воздухе водяной пар достигнет насыщения.
  • f - Относительная влажность воздуха - влажноcть воздуха, измеренная на высоте 2 м над землей.
  • Te - Эффективная температура - температура, которую ощущает одетый по сезону человек в тени. Характеристика душности погоды. При расчете учитывается влияние влажности воздуха и скорости ветра на теплоощущения человека.
  • Tes - Эффективная температура на солнце - температура, которую ощущает человек, с поправкой на солнечный нагрев. Характеристика знойности погоды. Зависит от высоты солнца над горизонтом, облачности и скорости ветра. Ночью, в пасмурную погоду, а также при ветре 12 м/с и более поправка равна нулю.
  • P - Атмосферное давление - приведенное к уровню моря атмосферное давление.
  • Po - Атмосферное давление - измеренное на уровне метеостанции атмосферное давление.
  • Tmin - Минимальная температура - минимум температуры воздуха на высоте 2 м над землей.
  • Tmax - Максимальная температура - максимум температуры воздуха на высоте 2 м над землей.
  • R - Количество осадков - Количество выпавших осадков за период времени, мм. При наведении курсора мыши на число - период времени, за который выпало указанное количество осадков.
  • R24 - Количество осадков - Количество выпавших осадков за 24 часа, мм.
  • S - Снежный покров - Высота снежного покрова, см. При наведении курсора мыши на число - состояние снежного покрова и степень покрытия местности в баллах.